Regional Weather Roundup
Issued by NWS New Orleans/Baton Rouge, LA

Home | Current Version | Previous Version | Text Only | Print | Product List | Glossary Off
Versions: 1 2 3 4 5 6 7 8 9 10 11 12 13 14 15 16 17 18 19 20 21 22 23 24 25 26 27 28 29 30 31 32 33 34 35 36 37 38 39 40 41 42 43 44 45 46 47 48 49 50

326
ASUS44 KLIX 230505
RWRLIX
NEW ORLEANS REGIONAL WEATHER ROUNDUP
NATIONAL WEATHER SERVICE NEW ORLEANS LA
1200 AM CDT THU OCT 23 2014

NOTE: "FAIR" INDICATES FEW OR NO CLOUDS BELOW 12,000 FEET WITH NO
      SIGNIFICANT WEATHER AND/OR OBSTRUCTIONS TO VISIBILITY.
      SKY/WX - SKY CONDITION AND SIGNIFICANT WEATHER.
      TMP - AIR TEMPERATURE.     DP    - DEWPOINT TEMPERATURE.
      RH  - RELATIVE HUMIDITY.   PRES  - PRESSURE.
      HI  - HEAT INDEX.          WCI   - WIND CHILL INDEX.

*  THESE STATIONS ARE NOT NWS OR FAA STATIONS AND ARE NOT UNDER
   NWS QUALITY CONTROL.

LAZ038-040-048-061>063-065>067-069-230600-
SOUTHEAST LOUISIANA

CITY           SKY/WX    TMP DP  RH WIND       PRES   REMARKS
N.O. AUDUBON   NOT AVBL
N.O. INTL ARPT CLEAR     69  52  54 NE12      30.07F
N.O. LAKEFRONT LGT RAIN  70  52  52 NE23      30.08S
N.O. DOWNTOWN*   N/A     68  48  49 NE8       30.08F
SLIDELL        CLEAR     54  50  86 N6        30.09S
BATON ROUGE    CLEAR     58  51  78 NE6       30.09F
BOOTHVILLE     CLEAR     72  58  61 NE10G20   30.05F
BELLE CHASSE   CLEAR     64  53  67 NE7       30.06F
BOGALUSA*        N/A     51  48  88 CALM      30.12S
NEW ROADS*       N/A     58  51  79 N6        30.10S
GONZALES*        N/A     60  54  78 N3        30.08S
HAMMOND*       CLEAR     61  50  67 NE6       30.11S
HOUMA*         CLEAR     57  55  94 NE3       30.07S
PORT FOURCHON* CLEAR     70  63  78 N6        30.08F

$$

MSZ070-080>082-230600-
SOUTHERN MISSISSIPPI

CITY           SKY/WX    TMP DP  RH WIND       PRES   REMARKS
MCCOMB         CLEAR     58  48  69 N5        30.11F
GULFPORT       CLEAR     60  48  64 N5        30.08S
BILOXI         CLEAR     59  48  67 NE6       30.09S
PASCAGOULA     CLEAR     49  46  90 N3        30.09F

$$

COASTAL OBSERVATIONS
LAKE AND NEARSHORE STATIONS

STATION/POSITION TIME  TEMP    WIND        PRES    WAVE
                       AIR SEA DIR/SP/G            HT/PER
                 (UTC) (F)     (DEG/KT/KT) (MB)    (FT/S)
PASCAGOULA       0500   62      30/  6/ 10 1017.9
WAVELAND YACHT   0500   64      40/ 10/ 12 1018.2
GRAND ISLE       0500   71 75   40/  6/  9 1018.1
SOUTHWEST PASS   0500   72 82              1017.5
NEW CANAL        0500   70 71   60/ 20/ 21 1018.4
SHELL BEACH      0500   70 69   50/ 17/ 19 1017.9

OFFSHORE STATIONS

STATION/POSITION TIME  TEMP    WIND        PRES    WAVE
                       AIR SEA DIR/SP/G            HT/PER
                 (UTC) (F)     (DEG/KT/KT) (MB)    (FT/S)
64 S DAUPHIN ISL 0445   74 79   40/ 19/ 23 1017.2    3/ 5

$$




USA.gov is the U.S. government's official web portal to all federal, state and local government web resources and services.